Time,TemperatureF,DewpointF,PressureIn,WindDirection,WindDirectionDegrees,WindSpeedMPH,WindSpeedGustMPH,Humidity,HourlyPrecipIn,Conditions,Clouds,dailyrainin,SoftwareType,DateUTC
2013-02-14 00:00:00,27.4,22.0,29.67,NNW,344,0.0,0.0,81,0.00,,,0.00,weatherlink.com 1.10,2013-02-14 05:00:00,
2013-02-14 00:02:00,27.4,22.3,29.67,NNW,336,0.0,0.0,81,0.00,,,0.00,Wunderground v.1.15,2013-02-14 05:02:00,
2013-02-14 00:04:00,27.4,22.3,29.67,North,355,0.0,0.0,81,0.00,,,0.00,Wunderground v.1.15,2013-02-14 05:04:00,
2013-02-14 00:10:00,27.4,22.3,29.67,NNW,336,1.0,1.0,81,0.00,,,0.00,Wunderground v.1.15,2013-02-14 05:10:00,
2013-02-14 00:15:00,27.4,22.0,29.67,North,350,2.0,2.0,80,0.00,,,0.00,weatherlink.com 1.10,2013-02-14 05:15:00,
2013-02-14 00:20:00,27.4,22.0,29.67,North,355,1.0,1.0,80,0.00,,,0.00,Wunderground v.1.15,2013-02-14 05:20:00,
2013-02-14 00:22:00,27.4,22.0,29.67,North,355,1.0,1.0,80,0.00,,,0.00,Wunderground v.1.15,2013-02-14 05:22:00,
2013-02-14 00:28:00,27.4,22.0,29.67,NNW,342,1.0,2.0,80,0.00,,,0.00,Wunderground v.1.15,2013-02-14 05:28:00,
2013-02-14 00:34:00,27.5,22.1,29.68,North,5,1.0,2.0,80,0.00,,,0.00,Wunderground v.1.15,2013-02-14 05:34:00,
2013-02-14 00:40:00,27.5,22.1,29.68,North,355,1.0,2.0,80,0.00,,,0.00,Wunderground v.1.15,2013-02-14 05:40:00,
2013-02-14 00:46:00,27.5,22.1,29.68,North,355,1.0,2.0,80,0.00,,,0.00,Wunderground v.1.15,2013-02-14 05:46:00,
2013-02-14 00:52:00,27.5,22.1,29.68,North,355,1.0,2.0,80,0.00,,,0.00,Wunderground v.1.15,2013-02-14 05:52:00,
2013-02-14 00:58:00,27.4,22.0,29.68,North,355,1.0,2.0,80,0.00,,,0.00,Wunderground v.1.15,2013-02-14 05:58:00,
2013-02-14 01:04:00,27.4,22.0,29.69,North,351,1.0,3.0,80,0.00,,,0.00,Wunderground v.1.15,2013-02-14 06:04:00,
2013-02-14 01:10:00,27.0,21.9,29.69,North,351,0.0,3.0,81,0.00,,,0.00,Wunderground v.1.15,2013-02-14 06:10:00,
2013-02-14 01:15:00,26.7,22.0,29.69,North,351,0.0,0.0,82,0.00,,,0.00,weatherlink.com 1.10,2013-02-14 06:15:00,
2013-02-14 01:22:00,26.5,21.7,29.69,NNW,343,0.0,3.0,82,0.00,,,0.00,Wunderground v.1.15,2013-02-14 06:22:00,
2013-02-14 01:28:00,26.2,22.0,29.69,NNW,343,0.0,3.0,84,0.00,,,0.00,Wunderground v.1.15,2013-02-14 06:28:00,
2013-02-14 01:34:00,26.0,22.1,29.69,NNW,332,1.0,3.0,85,0.00,,,0.00,Wunderground v.1.15,2013-02-14 06:34:00,
2013-02-14 01:40:00,25.9,22.3,29.69,NNW,343,1.0,3.0,86,0.00,,,0.00,Wunderground v.1.15,2013-02-14 06:40:00,
2013-02-14 01:45:00,25.7,22.0,29.70,NNW,333,0.0,3.0,87,0.00,,,0.00,weatherlink.com 1.10,2013-02-14 06:45:00,
2013-02-14 01:52:00,25.4,22.3,29.70,NW,317,1.0,2.0,88,0.00,,,0.00,Wunderground v.1.15,2013-02-14 06:52:00,
2013-02-14 01:58:00,25.4,22.6,29.71,NW,314,2.0,3.0,89,0.00,,,0.00,Wunderground v.1.15,2013-02-14 06:58:00,
2013-02-14 02:04:00,25.4,22.9,29.71,NW,318,2.0,4.0,90,0.00,,,0.00,Wunderground v.1.15,2013-02-14 07:04:00,
2013-02-14 02:10:00,25.7,23.4,29.71,NW,315,2.0,4.0,91,0.00,,,0.00,Wunderground v.1.15,2013-02-14 07:10:00,
2013-02-14 02:16:00,25.8,23.5,29.72,NW,319,2.0,4.0,91,0.00,,,0.00,Wunderground v.1.15,2013-02-14 07:16:00,
2013-02-14 02:22:00,25.9,23.9,29.72,NW,312,2.0,4.0,92,0.00,,,0.00,Wunderground v.1.15,2013-02-14 07:22:00,
2013-02-14 02:28:00,25.9,23.9,29.72,NW,319,2.0,4.0,92,0.00,,,0.00,Wunderground v.1.15,2013-02-14 07:28:00,
2013-02-14 02:34:00,26.0,24.0,29.72,NW,313,2.0,4.0,92,0.00,,,0.00,Wunderground v.1.15,2013-02-14 07:34:00,
2013-02-14 02:40:00,26.0,24.3,29.72,NW,315,1.0,4.0,93,0.00,,,0.00,Wunderground v.1.15,2013-02-14 07:40:00,
2013-02-14 02:46:00,25.9,24.2,29.72,NW,306,1.0,4.0,93,0.00,,,0.00,Wunderground v.1.15,2013-02-14 07:46:00,
2013-02-14 02:52:00,26.0,24.3,29.72,NW,316,1.0,4.0,93,0.00,,,0.00,Wunderground v.1.15,2013-02-14 07:52:00,
2013-02-14 02:58:00,26.1,24.4,29.72,NW,316,1.0,4.0,93,0.00,,,0.00,Wunderground v.1.15,2013-02-14 07:58:00,
2013-02-14 03:04:00,26.2,24.7,29.73,NW,319,1.0,4.0,94,0.00,,,0.00,Wunderground v.1.15,2013-02-14 08:04:00,
2013-02-14 03:10:00,26.3,24.8,29.73,NW,308,1.0,4.0,94,0.00,,,0.00,Wunderground v.1.15,2013-02-14 08:10:00,
2013-02-14 03:16:00,26.4,25.0,29.73,NW,317,2.0,3.0,94,0.00,,,0.00,weatherlink.com 1.10,2013-02-14 08:16:00,
2013-02-14 03:22:00,26.5,25.0,29.73,NW,315,2.0,4.0,94,0.00,,,0.00,Wunderground v.1.15,2013-02-14 08:22:00,
2013-02-14 03:28:00,26.6,24.8,29.73,NW,313,1.0,4.0,93,0.00,,,0.00,Wunderground v.1.15,2013-02-14 08:28:00,
2013-02-14 03:34:00,26.7,24.9,29.73,NW,317,1.0,4.0,93,0.00,,,0.00,Wunderground v.1.15,2013-02-14 08:34:00,
2013-02-14 03:40:00,26.7,24.9,29.73,NW,317,1.0,4.0,93,0.00,,,0.00,Wunderground v.1.15,2013-02-14 08:40:00,
2013-02-14 03:46:00,26.8,25.0,29.73,NW,313,0.0,3.0,94,0.00,,,0.00,weatherlink.com 1.10,2013-02-14 08:46:00,
2013-02-14 03:52:00,26.9,25.1,29.74,NW,313,1.0,4.0,93,0.00,,,0.00,Wunderground v.1.15,2013-02-14 08:52:00,
2013-02-14 03:58:00,27.0,25.2,29.74,NW,304,1.0,4.0,93,0.00,,,0.00,Wunderground v.1.15,2013-02-14 08:58:00,
2013-02-14 04:04:00,27.0,25.2,29.74,NW,305,0.0,3.0,93,0.00,,,0.00,Wunderground v.1.15,2013-02-14 09:04:00,
2013-02-14 04:10:00,27.0,25.2,29.74,NW,313,0.0,3.0,93,0.00,,,0.00,Wunderground v.1.15,2013-02-14 09:10:00,
2013-02-14 04:16:00,27.0,25.0,29.74,NW,314,0.0,2.0,93,0.00,,,0.00,weatherlink.com 1.10,2013-02-14 09:16:00,
2013-02-14 04:22:00,27.1,25.3,29.75,NW,313,1.0,3.0,93,0.00,,,0.00,Wunderground v.1.15,2013-02-14 09:22:00,
2013-02-14 04:28:00,27.2,25.4,29.75,NW,310,1.0,3.0,93,0.00,,,0.00,Wunderground v.1.15,2013-02-14 09:28:00,
2013-02-14 04:34:00,27.4,25.6,29.75,NW,309,1.0,3.0,93,0.00,,,0.00,Wunderground v.1.15,2013-02-14 09:34:00,
2013-02-14 04:40:00,27.5,25.7,29.75,NW,315,2.0,2.0,93,0.00,,,0.00,Wunderground v.1.15,2013-02-14 09:40:00,
2013-02-14 04:46:00,27.5,25.5,29.75,NW,312,2.0,3.0,92,0.00,,,0.00,Wunderground v.1.15,2013-02-14 09:46:00,
2013-02-14 04:52:00,27.6,25.6,29.75,WNW,299,2.0,3.0,92,0.00,,,0.00,Wunderground v.1.15,2013-02-14 09:52:00,
2013-02-14 04:58:00,27.7,25.7,29.76,WNW,302,2.0,3.0,92,0.00,,,0.00,Wunderground v.1.15,2013-02-14 09:58:00,
2013-02-14 05:04:00,27.8,25.8,29.76,NW,317,2.0,4.0,92,0.00,,,0.00,Wunderground v.1.15,2013-02-14 10:04:00,
2013-02-14 05:10:00,27.9,25.9,29.76,WNW,302,2.0,4.0,92,0.00,,,0.00,Wunderground v.1.15,2013-02-14 10:10:00,
2013-02-14 05:16:00,27.9,25.6,29.76,NW,306,3.0,5.0,91,0.00,,,0.00,Wunderground v.1.15,2013-02-14 10:16:00,
2013-02-14 05:22:00,28.0,25.7,29.76,WNW,302,3.0,4.0,91,0.00,,,0.00,Wunderground v.1.15,2013-02-14 10:22:00,
2013-02-14 05:28:00,28.1,25.5,29.76,WNW,288,2.0,4.0,90,0.00,,,0.00,Wunderground v.1.15,2013-02-14 10:28:00,
2013-02-14 05:34:00,28.1,25.5,29.76,WNW,286,2.0,4.0,90,0.00,,,0.00,Wunderground v.1.15,2013-02-14 10:34:00,
2013-02-14 05:40:00,28.1,25.5,29.77,WNW,303,2.0,4.0,90,0.00,,,0.00,Wunderground v.1.15,2013-02-14 10:40:00,
2013-02-14 05:46:00,28.2,25.4,29.77,WNW,294,3.0,5.0,89,0.00,,,0.00,Wunderground v.1.15,2013-02-14 10:46:00,
2013-02-14 05:52:00,28.2,25.4,29.77,NW,320,3.0,5.0,89,0.00,,,0.00,Wunderground v.1.15,2013-02-14 10:52:00,
2013-02-14 05:58:00,28.3,25.5,29.77,WNW,285,2.0,5.0,89,0.00,,,0.00,Wunderground v.1.15,2013-02-14 10:58:00,
2013-02-14 06:04:00,28.3,25.5,29.77,WNW,289,3.0,5.0,89,0.00,,,0.00,Wunderground v.1.15,2013-02-14 11:04:00,
2013-02-14 06:10:00,28.3,25.5,29.77,West,279,3.0,5.0,89,0.00,,,0.00,Wunderground v.1.15,2013-02-14 11:10:00,
2013-02-14 06:16:00,28.3,25.5,29.77,NW,322,3.0,5.0,89,0.00,,,0.00,Wunderground v.1.15,2013-02-14 11:16:00,
2013-02-14 06:22:00,28.3,25.5,29.77,NW,316,3.0,5.0,89,0.00,,,0.00,Wunderground v.1.15,2013-02-14 11:22:00,
2013-02-14 06:28:00,28.3,25.2,29.78,West,281,3.0,5.0,88,0.00,,,0.00,Wunderground v.1.15,2013-02-14 11:28:00,
2013-02-14 06:34:00,28.3,25.2,29.78,WNW,282,3.0,5.0,88,0.00,,,0.00,Wunderground v.1.15,2013-02-14 11:34:00,
2013-02-14 06:40:00,28.3,24.9,29.78,WNW,287,4.0,5.0,87,0.00,,,0.00,Wunderground v.1.15,2013-02-14 11:40:00,
2013-02-14 06:46:00,28.3,24.9,29.79,WNW,290,4.0,5.0,87,0.00,,,0.00,Wunderground v.1.15,2013-02-14 11:46:00,
2013-02-14 06:52:00,28.3,24.9,29.79,West,276,4.0,5.0,87,0.00,,,0.00,Wunderground v.1.15,2013-02-14 11:52:00,
2013-02-14 06:58:00,28.3,25.2,29.79,WNW,286,4.0,5.0,88,0.00,,,0.00,Wunderground v.1.15,2013-02-14 11:58:00,
2013-02-14 07:04:00,28.4,25.0,29.79,WNW,292,4.0,6.0,87,0.00,,,0.00,Wunderground v.1.15,2013-02-14 12:04:00,
2013-02-14 07:10:00,28.4,25.0,29.80,NW,319,3.0,3.0,87,0.00,,,0.00,Wunderground v.1.15,2013-02-14 12:10:00,
2013-02-14 07:16:00,28.5,25.1,29.80,WNW,294,3.0,6.0,87,0.00,,,0.00,Wunderground v.1.15,2013-02-14 12:16:00,
2013-02-14 07:22:00,28.5,24.8,29.80,NW,304,3.0,6.0,86,0.00,,,0.00,Wunderground v.1.15,2013-02-14 12:22:00,
2013-02-14 07:28:00,28.7,24.8,29.80,NW,318,4.0,6.0,85,0.00,,,0.00,Wunderground v.1.15,2013-02-14 12:28:00,
2013-02-14 07:34:00,28.7,25.0,29.81,NW,305,4.0,6.0,86,0.00,,,0.00,Wunderground v.1.15,2013-02-14 12:34:00,
2013-02-14 07:40:00,28.7,25.3,29.81,WNW,296,3.0,3.0,87,0.00,,,0.00,Wunderground v.1.15,2013-02-14 12:40:00,
2013-02-14 07:46:00,28.8,25.4,29.81,WNW,287,3.0,6.0,87,0.00,,,0.00,Wunderground v.1.15,2013-02-14 12:46:00,
2013-02-14 07:52:00,28.7,25.3,29.81,WNW,292,3.0,6.0,87,0.00,,,0.00,Wunderground v.1.15,2013-02-14 12:52:00,
2013-02-14 07:58:00,28.7,25.3,29.81,WNW,290,3.0,6.0,87,0.00,,,0.00,Wunderground v.1.15,2013-02-14 12:58:00,
2013-02-14 08:03:00,28.8,25.0,29.82,West,280,2.0,4.0,87,0.00,,,0.00,weatherlink.com 1.10,2013-02-14 13:03:00,
2013-02-14 08:10:00,28.9,25.2,29.82,West,273,3.0,5.0,86,0.00,,,0.00,Wunderground v.1.15,2013-02-14 13:10:00,
2013-02-14 08:16:00,29.0,25.1,29.82,West,269,3.0,5.0,85,0.00,,,0.00,Wunderground v.1.15,2013-02-14 13:16:00,
2013-02-14 08:22:00,29.0,25.1,29.82,WNW,303,4.0,5.0,85,0.00,,,0.00,Wunderground v.1.15,2013-02-14 13:22:00,
2013-02-14 08:28:00,29.2,25.3,29.82,SW,225,4.0,5.0,85,0.00,,,0.00,Wunderground v.1.15,2013-02-14 13:28:00,
2013-02-14 08:34:00,29.4,25.2,29.82,WSW,240,4.0,5.0,84,0.00,,,0.00,Wunderground v.1.15,2013-02-14 13:34:00,
2013-02-14 08:40:00,29.5,25.3,29.83,WSW,246,3.0,5.0,84,0.00,,,0.00,Wunderground v.1.15,2013-02-14 13:40:00,
2013-02-14 08:46:00,29.6,25.4,29.83,West,275,3.0,5.0,84,0.00,,,0.00,Wunderground v.1.15,2013-02-14 13:46:00,
2013-02-14 08:52:00,29.5,25.0,29.83,West,261,3.0,5.0,83,0.00,,,0.00,Wunderground v.1.15,2013-02-14 13:52:00,
2013-02-14 08:58:00,29.5,24.7,29.83,WNW,296,3.0,5.0,82,0.00,,,0.00,Wunderground v.1.15,2013-02-14 13:58:00,
2013-02-14 09:04:00,29.5,24.7,29.83,SW,235,4.0,6.0,82,0.00,,,0.00,Wunderground v.1.15,2013-02-14 14:04:00,
2013-02-14 09:10:00,29.8,25.0,29.84,WSW,242,2.0,6.0,82,0.00,,,0.00,Wunderground v.1.15,2013-02-14 14:10:00,
2013-02-14 09:16:00,29.8,25.0,29.83,SW,219,3.0,6.0,82,0.00,,,0.00,Wunderground v.1.15,2013-02-14 14:16:00,
2013-02-14 09:22:00,29.8,25.0,29.83,WSW,247,3.0,4.0,82,0.00,,,0.00,Wunderground v.1.15,2013-02-14 14:22:00,
2013-02-14 09:28:00,29.8,25.0,29.84,SW,229,3.0,6.0,82,0.00,,,0.00,Wunderground v.1.15,2013-02-14 14:28:00,
2013-02-14 09:34:00,29.9,25.1,29.83,WSW,242,2.0,6.0,82,0.00,,,0.00,Wunderground v.1.15,2013-02-14 14:34:00,
2013-02-14 09:40:00,30.0,25.2,29.83,West,271,2.0,6.0,82,0.00,,,0.00,Wunderground v.1.15,2013-02-14 14:40:00,
2013-02-14 09:46:00,30.4,25.6,29.83,SSW,197,2.0,6.0,82,0.00,,,0.00,Wunderground v.1.15,2013-02-14 14:46:00,
2013-02-14 09:52:00,30.9,25.8,29.83,SSW,211,1.0,4.0,81,0.00,,,0.00,Wunderground v.1.15,2013-02-14 14:52:00,
2013-02-14 09:58:00,30.8,25.7,29.84,SW,230,2.0,6.0,81,0.00,,,0.00,Wunderground v.1.15,2013-02-14 14:58:00,
2013-02-14 10:04:00,31.0,25.6,29.84,SSW,212,2.0,6.0,80,0.00,,,0.00,Wunderground v.1.15,2013-02-14 15:04:00,
2013-02-14 10:10:00,31.3,26.1,29.84,SW,215,1.0,6.0,81,0.00,,,0.00,Wunderground v.1.15,2013-02-14 15:10:00,
2013-02-14 10:16:00,31.4,25.6,29.83,SW,222,1.0,6.0,79,0.00,,,0.00,Wunderground v.1.15,2013-02-14 15:16:00,
2013-02-14 10:22:00,31.4,25.6,29.83,SW,223,2.0,4.0,79,0.00,,,0.00,Wunderground v.1.15,2013-02-14 15:22:00,
2013-02-14 10:28:00,31.4,25.6,29.83,SSW,199,2.0,6.0,79,0.00,,,0.00,Wunderground v.1.15,2013-02-14 15:28:00,
2013-02-14 10:34:00,31.6,25.8,29.83,SSW,211,3.0,6.0,79,0.00,,,0.00,Wunderground v.1.15,2013-02-14 15:34:00,
2013-02-14 10:40:00,32.3,26.8,29.83,South,185,3.0,3.0,80,0.00,,,0.00,Wunderground v.1.15,2013-02-14 15:40:00,
2013-02-14 10:46:00,32.9,26.8,29.83,South,180,4.0,9.0,78,0.00,,,0.00,Wunderground v.1.15,2013-02-14 15:46:00,
2013-02-14 10:52:00,33.7,27.6,29.83,SSW,193,5.0,6.0,78,0.00,,,0.00,Wunderground v.1.15,2013-02-14 15:52:00,
2013-02-14 10:58:00,34.4,27.0,29.83,SSW,204,3.0,7.0,74,0.00,,,0.00,Wunderground v.1.15,2013-02-14 15:58:00,
2013-02-14 11:04:00,34.2,26.8,29.83,SSW,192,3.0,11.0,74,0.00,,,0.00,Wunderground v.1.15,2013-02-14 16:04:00,
2013-02-14 11:10:00,34.7,26.6,29.82,SSW,205,4.0,11.0,72,0.00,,,0.00,Wunderground v.1.15,2013-02-14 16:10:00,
2013-02-14 11:16:00,34.4,26.3,29.82,SW,225,4.0,11.0,72,0.00,,,0.00,Wunderground v.1.15,2013-02-14 16:16:00,
2013-02-14 11:22:00,34.5,27.1,29.82,SSE,153,3.0,11.0,74,0.00,,,0.00,Wunderground v.1.15,2013-02-14 16:22:00,
2013-02-14 11:28:00,35.3,27.5,29.82,SSW,196,4.0,11.0,73,0.00,,,0.00,Wunderground v.1.15,2013-02-14 16:28:00,
2013-02-14 11:34:00,35.9,27.7,29.81,South,175,5.0,11.0,72,0.00,,,0.00,Wunderground v.1.15,2013-02-14 16:34:00,
2013-02-14 11:40:00,36.1,27.6,29.81,SSE,153,5.0,11.0,71,0.00,,,0.00,Wunderground v.1.15,2013-02-14 16:40:00,
2013-02-14 11:46:00,35.9,27.7,29.81,SSE,152,6.0,11.0,72,0.00,,,0.00,Wunderground v.1.15,2013-02-14 16:46:00,
2013-02-14 11:52:00,36.0,27.8,29.81,SSE,152,5.0,11.0,72,0.00,,,0.00,Wunderground v.1.15,2013-02-14 16:52:00,
2013-02-14 11:58:00,36.2,28.0,29.80,SSW,194,5.0,11.0,72,0.00,,,0.00,Wunderground v.1.15,2013-02-14 16:58:00,
2013-02-14 12:04:00,36.7,27.8,29.81,SSW,194,5.0,9.0,70,0.00,,,0.00,Wunderground v.1.15,2013-02-14 17:04:00,
2013-02-14 12:10:00,37.1,27.9,29.81,South,186,6.0,9.0,69,0.00,,,0.00,Wunderground v.1.15,2013-02-14 17:10:00,
2013-02-14 12:16:00,37.2,28.0,29.80,South,175,7.0,9.0,69,0.00,,,0.00,Wunderground v.1.15,2013-02-14 17:16:00,
2013-02-14 12:22:00,37.5,27.9,29.80,South,181,5.0,9.0,68,0.00,,,0.00,Wunderground v.1.15,2013-02-14 17:22:00,
2013-02-14 12:28:00,37.5,27.9,29.80,SSW,192,5.0,9.0,68,0.00,,,0.00,Wunderground v.1.15,2013-02-14 17:28:00,
2013-02-14 12:34:00,37.6,27.6,29.79,South,186,5.0,9.0,67,0.00,,,0.00,Wunderground v.1.15,2013-02-14 17:34:00,
2013-02-14 12:40:00,37.8,28.2,29.79,SSW,194,5.0,9.0,68,0.00,,,0.00,Wunderground v.1.15,2013-02-14 17:40:00,
2013-02-14 12:46:00,38.3,27.9,29.78,South,190,6.0,9.0,66,0.00,,,0.00,Wunderground v.1.15,2013-02-14 17:46:00,
2013-02-14 12:51:00,38.4,28.0,29.78,South,190,8.0,10.0,66,0.00,,,0.00,weatherlink.com 1.10,2013-02-14 17:51:00,
2013-02-14 12:58:00,39.0,28.2,29.78,South,178,6.0,9.0,65,0.00,,,0.00,Wunderground v.1.15,2013-02-14 17:58:00,
2013-02-14 13:04:00,39.3,28.5,29.78,South,185,6.0,11.0,65,0.00,,,0.00,Wunderground v.1.15,2013-02-14 18:04:00,
2013-02-14 13:10:00,39.7,28.5,29.77,South,184,5.0,11.0,64,0.00,,,0.00,Wunderground v.1.15,2013-02-14 18:10:00,
2013-02-14 13:16:00,40.0,28.8,29.77,SSE,165,6.0,11.0,64,0.00,,,0.00,Wunderground v.1.15,2013-02-14 18:16:00,
2013-02-14 13:22:00,39.8,28.6,29.77,SSE,161,5.0,11.0,64,0.00,,,0.00,Wunderground v.1.15,2013-02-14 18:22:00,
2013-02-14 13:28:00,39.8,29.0,29.77,SSE,162,5.0,11.0,65,0.00,,,0.00,Wunderground v.1.15,2013-02-14 18:28:00,
2013-02-14 13:34:00,39.8,28.6,29.77,SSE,158,5.0,11.0,64,0.00,,,0.00,Wunderground v.1.15,2013-02-14 18:34:00,
2013-02-14 13:40:00,40.2,29.4,29.77,South,182,6.0,11.0,65,0.00,,,0.00,Wunderground v.1.15,2013-02-14 18:40:00,
2013-02-14 13:46:00,40.9,29.3,29.77,SSE,163,6.0,11.0,63,0.00,,,0.00,Wunderground v.1.15,2013-02-14 18:46:00,
2013-02-14 13:51:00,40.9,29.0,29.76,South,180,6.0,10.0,63,0.00,,,0.00,weatherlink.com 1.10,2013-02-14 18:51:00,
2013-02-14 13:58:00,41.1,29.1,29.76,SSE,163,5.0,11.0,62,0.00,,,0.00,Wunderground v.1.15,2013-02-14 18:58:00,
2013-02-14 14:04:00,41.3,29.6,29.76,SSE,155,6.0,12.0,63,0.00,,,0.00,Wunderground v.1.15,2013-02-14 19:04:00,
2013-02-14 14:10:00,41.4,28.5,29.76,South,178,6.0,12.0,60,0.00,,,0.00,Wunderground v.1.15,2013-02-14 19:10:00,
2013-02-14 14:16:00,41.3,28.0,29.76,South,182,7.0,12.0,59,0.00,,,0.00,Wunderground v.1.15,2013-02-14 19:16:00,
2013-02-14 14:21:00,42.1,28.0,29.76,South,172,6.0,10.0,57,0.00,,,0.00,weatherlink.com 1.10,2013-02-14 19:21:00,
2013-02-14 14:28:00,42.5,27.9,29.75,SSW,193,7.0,12.0,56,0.00,,,0.00,Wunderground v.1.15,2013-02-14 19:28:00,
2013-02-14 14:34:00,42.7,28.5,29.75,South,181,7.0,12.0,57,0.00,,,0.00,Wunderground v.1.15,2013-02-14 19:34:00,
2013-02-14 14:40:00,42.9,29.1,29.75,South,176,6.0,6.0,58,0.00,,,0.00,Wunderground v.1.15,2013-02-14 19:40:00,
2013-02-14 14:48:00,42.7,30.2,29.75,SSE,155,5.0,12.0,61,0.00,,,0.00,Wunderground v.1.15,2013-02-14 19:48:00,
2013-02-14 14:54:00,42.3,29.4,29.74,SSE,150,6.0,12.0,60,0.00,,,0.00,Wunderground v.1.15,2013-02-14 19:54:00,
2013-02-14 15:00:00,42.1,29.2,29.75,South,173,7.0,7.0,60,0.00,,,0.00,Wunderground v.1.15,2013-02-14 20:00:00,
2013-02-14 15:06:00,42.4,29.1,29.75,SSW,195,7.0,10.0,59,0.00,,,0.00,Wunderground v.1.15,2013-02-14 20:06:00,
2013-02-14 15:12:00,41.8,28.1,29.75,South,190,7.0,10.0,58,0.00,,,0.00,Wunderground v.1.15,2013-02-14 20:12:00,
2013-02-14 15:18:00,41.1,27.9,29.75,SSW,196,7.0,10.0,59,0.00,,,0.00,Wunderground v.1.15,2013-02-14 20:18:00,
2013-02-14 15:23:00,40.8,28.0,29.75,South,183,4.0,10.0,61,0.00,,,0.00,weatherlink.com 1.10,2013-02-14 20:23:00,
2013-02-14 15:30:00,40.9,28.5,29.75,South,182,5.0,10.0,61,0.00,,,0.00,Wunderground v.1.15,2013-02-14 20:30:00,
2013-02-14 15:38:00,41.1,28.0,29.74,SSE,161,8.0,11.0,60,0.00,,,0.00,weatherlink.com 1.10,2013-02-14 20:38:00,
2013-02-14 15:44:00,40.9,27.7,29.74,SSE,167,7.0,10.0,59,0.00,,,0.00,Wunderground v.1.15,2013-02-14 20:44:00,
2013-02-14 15:50:00,40.6,27.8,29.74,South,184,8.0,10.0,60,0.00,,,0.00,Wunderground v.1.15,2013-02-14 20:50:00,
2013-02-14 15:56:00,40.4,28.4,29.74,South,186,8.0,10.0,62,0.00,,,0.00,Wunderground v.1.15,2013-02-14 20:56:00,
2013-02-14 16:02:00,40.6,28.6,29.74,South,172,8.0,12.0,62,0.00,,,0.00,Wunderground v.1.15,2013-02-14 21:02:00,
2013-02-14 16:07:00,40.7,28.0,29.74,South,184,10.0,10.0,61,0.00,,,0.00,weatherlink.com 1.10,2013-02-14 21:07:00,
2013-02-14 16:14:00,40.6,27.8,29.74,South,183,7.0,12.0,60,0.00,,,0.00,Wunderground v.1.15,2013-02-14 21:14:00,
2013-02-14 16:20:00,40.5,28.1,29.74,South,185,7.0,12.0,61,0.00,,,0.00,Wunderground v.1.15,2013-02-14 21:20:00,
2013-02-14 16:26:00,40.4,28.0,29.74,South,185,7.0,12.0,61,0.00,,,0.00,Wunderground v.1.15,2013-02-14 21:26:00,
2013-02-14 16:32:00,40.2,28.2,29.75,South,188,6.0,12.0,62,0.00,,,0.00,Wunderground v.1.15,2013-02-14 21:32:00,
2013-02-14 16:38:00,39.9,27.0,29.75,SSW,201,6.0,9.0,61,0.00,,,0.00,weatherlink.com 1.10,2013-02-14 21:38:00,
2013-02-14 16:44:00,39.8,27.0,29.75,SSW,202,6.0,12.0,60,0.00,,,0.00,Wunderground v.1.15,2013-02-14 21:44:00,
2013-02-14 16:50:00,39.7,27.7,29.75,SSW,211,7.0,7.0,62,0.00,,,0.00,Wunderground v.1.15,2013-02-14 21:50:00,
2013-02-14 16:56:00,39.6,28.4,29.75,SSW,196,8.0,12.0,64,0.00,,,0.00,Wunderground v.1.15,2013-02-14 21:56:00,
2013-02-14 17:02:00,39.4,28.6,29.76,SSW,207,9.0,9.0,65,0.00,,,0.00,Wunderground v.1.15,2013-02-14 22:02:00,
2013-02-14 17:09:00,39.1,30.0,29.76,SW,227,6.0,12.0,70,0.00,,,0.00,weatherlink.com 1.10,2013-02-14 22:09:00,
2013-02-14 17:16:00,38.2,31.6,29.76,SSW,203,4.0,13.0,77,0.00,,,0.00,Wunderground v.1.15,2013-02-14 22:16:00,
2013-02-14 17:22:00,37.5,31.9,29.76,SSW,198,4.0,13.0,80,0.00,,,0.00,Wunderground v.1.15,2013-02-14 22:22:00,
2013-02-14 17:28:00,37.0,32.0,29.76,SSW,201,5.0,13.0,82,0.00,,,0.00,Wunderground v.1.15,2013-02-14 22:28:00,
2013-02-14 17:34:00,36.7,32.0,29.76,SSW,198,6.0,13.0,83,0.00,,,0.00,Wunderground v.1.15,2013-02-14 22:34:00,
2013-02-14 17:44:00,35.9,32.4,29.76,SSW,196,5.0,13.0,87,0.00,,,0.00,Wunderground v.1.15,2013-02-14 22:44:00,
2013-02-14 17:50:00,35.6,32.7,29.76,SSW,202,6.0,13.0,89,0.00,,,0.00,Wunderground v.1.15,2013-02-14 22:50:00,
2013-02-14 17:56:00,35.4,32.5,29.76,SSW,198,6.0,13.0,89,0.00,,,0.00,Wunderground v.1.15,2013-02-14 22:56:00,
2013-02-14 18:02:00,35.3,32.7,29.76,SSW,202,6.0,13.0,90,0.00,,,0.00,Wunderground v.1.15,2013-02-14 23:02:00,
2013-02-14 18:09:00,35.3,33.0,29.76,SSW,208,5.0,9.0,90,0.00,,,0.00,weatherlink.com 1.10,2013-02-14 23:09:00,
2013-02-14 18:16:00,35.3,32.9,29.76,SSW,203,6.0,13.0,91,0.00,,,0.00,Wunderground v.1.15,2013-02-14 23:16:00,
2013-02-14 18:22:00,35.4,33.0,29.76,South,182,6.0,13.0,91,0.00,,,0.00,Wunderground v.1.15,2013-02-14 23:22:00,
2013-02-14 18:28:00,35.4,33.0,29.76,SSW,193,6.0,13.0,91,0.00,,,0.00,Wunderground v.1.15,2013-02-14 23:28:00,
2013-02-14 18:34:00,35.4,33.0,29.76,SSW,200,7.0,13.0,91,0.00,,,0.00,Wunderground v.1.15,2013-02-14 23:34:00,
2013-02-14 18:40:00,35.3,33.2,29.76,SSW,193,7.0,7.0,92,0.00,,,0.00,Wunderground v.1.15,2013-02-14 23:40:00,
2013-02-14 18:46:00,35.3,33.2,29.76,SSW,192,7.0,13.0,92,0.00,,,0.00,Wunderground v.1.15,2013-02-14 23:46:00,
2013-02-14 18:52:00,35.4,33.3,29.76,South,190,8.0,13.0,92,0.00,,,0.00,Wunderground v.1.15,2013-02-14 23:52:00,
2013-02-14 18:58:00,35.5,33.4,29.76,SSW,192,8.0,13.0,92,0.00,,,0.00,Wunderground v.1.15,2013-02-14 23:58:00,
2013-02-14 19:04:00,35.5,33.4,29.76,SSW,192,8.0,12.0,92,0.00,,,0.00,Wunderground v.1.15,2013-02-15 00:04:00,
2013-02-14 19:09:00,35.6,34.0,29.76,SSW,202,10.0,14.0,92,0.00,,,0.00,weatherlink.com 1.10,2013-02-15 00:09:00,
2013-02-14 19:16:00,35.7,33.6,29.76,SSW,192,8.0,12.0,92,0.00,,,0.00,Wunderground v.1.15,2013-02-15 00:16:00,
2013-02-14 19:22:00,35.7,33.6,29.76,SSW,196,8.0,12.0,92,0.00,,,0.00,Wunderground v.1.15,2013-02-15 00:22:00,
2013-02-14 19:28:00,35.7,33.6,29.76,SSW,194,9.0,13.0,92,0.00,,,0.00,Wunderground v.1.15,2013-02-15 00:28:00,
2013-02-14 19:34:00,35.7,33.6,29.76,SSW,192,10.0,12.0,92,0.00,,,0.00,Wunderground v.1.15,2013-02-15 00:34:00,
2013-02-14 19:40:00,35.6,33.5,29.76,SSW,194,10.0,12.0,92,0.00,,,0.00,Wunderground v.1.15,2013-02-15 00:40:00,
2013-02-14 19:46:00,35.6,33.5,29.76,SSW,207,11.0,16.0,92,0.00,,,0.00,Wunderground v.1.15,2013-02-15 00:46:00,
2013-02-14 19:52:00,35.5,33.4,29.76,South,190,10.0,12.0,92,0.00,,,0.00,Wunderground v.1.15,2013-02-15 00:52:00,
2013-02-14 19:58:00,35.5,33.7,29.76,South,188,9.0,13.0,93,0.00,,,0.01,Wunderground v.1.15,2013-02-15 00:58:00,
2013-02-14 20:04:00,35.5,33.7,29.75,SSW,199,11.0,17.0,93,0.00,,,0.01,Wunderground v.1.15,2013-02-15 01:04:00,
2013-02-14 20:10:00,35.5,33.7,29.75,South,180,11.0,17.0,93,0.00,,,0.01,Wunderground v.1.15,2013-02-15 01:10:00,
2013-02-14 20:16:00,35.4,33.6,29.75,South,171,9.0,17.0,93,0.00,,,0.01,Wunderground v.1.15,2013-02-15 01:16:00,
2013-02-14 20:22:00,35.4,33.6,29.75,South,180,9.0,9.0,93,0.00,,,0.01,Wunderground v.1.15,2013-02-15 01:22:00,
2013-02-14 20:28:00,35.3,33.5,29.75,SSW,195,9.0,17.0,93,0.00,,,0.01,Wunderground v.1.15,2013-02-15 01:28:00,
2013-02-14 20:34:00,35.3,33.5,29.75,SSW,194,9.0,10.0,93,0.00,,,0.01,Wunderground v.1.15,2013-02-15 01:34:00,
2013-02-14 20:40:00,35.2,33.4,29.75,South,186,9.0,17.0,93,0.00,,,0.01,Wunderground v.1.15,2013-02-15 01:40:00,
2013-02-14 20:46:00,35.2,33.4,29.75,SSW,200,9.0,17.0,93,0.00,,,0.01,Wunderground v.1.15,2013-02-15 01:46:00,
2013-02-14 20:52:00,35.3,33.5,29.75,SSW,194,9.0,17.0,93,0.00,,,0.01,Wunderground v.1.15,2013-02-15 01:52:00,
2013-02-14 20:58:00,35.3,33.5,29.76,SSW,192,9.0,17.0,93,0.00,,,0.01,Wunderground v.1.15,2013-02-15 01:58:00,
2013-02-14 21:04:00,35.4,33.6,29.75,SSW,198,10.0,18.0,93,0.00,,,0.01,Wunderground v.1.15,2013-02-15 02:04:00,
2013-02-14 21:10:00,35.5,33.4,29.75,SSW,200,9.0,18.0,92,0.00,,,0.01,Wunderground v.1.15,2013-02-15 02:10:00,
2013-02-14 21:16:00,35.5,33.4,29.76,SSW,208,8.0,18.0,92,0.00,,,0.01,Wunderground v.1.15,2013-02-15 02:16:00,
2013-02-14 21:22:00,35.5,33.4,29.76,South,182,7.0,9.0,92,0.00,,,0.01,Wunderground v.1.15,2013-02-15 02:22:00,
2013-02-14 21:28:00,35.6,33.5,29.75,SSW,195,7.0,18.0,92,0.00,,,0.01,Wunderground v.1.15,2013-02-15 02:28:00,
2013-02-14 21:34:00,35.7,33.3,29.76,South,186,9.0,18.0,91,0.00,,,0.01,Wunderground v.1.15,2013-02-15 02:34:00,
2013-02-14 21:40:00,35.7,33.3,29.75,South,191,9.0,9.0,91,0.00,,,0.01,Wunderground v.1.15,2013-02-15 02:40:00,
2013-02-14 21:46:00,35.7,33.3,29.75,South,177,9.0,18.0,91,0.00,,,0.01,Wunderground v.1.15,2013-02-15 02:46:00,
2013-02-14 21:52:00,35.7,33.1,29.75,SSW,205,9.0,18.0,90,0.00,,,0.01,Wunderground v.1.15,2013-02-15 02:52:00,
2013-02-14 21:58:00,35.7,33.1,29.75,South,177,8.0,18.0,90,0.00,,,0.01,Wunderground v.1.15,2013-02-15 02:58:00,
2013-02-14 22:04:00,35.7,33.1,29.75,South,190,8.0,17.0,90,0.00,,,0.01,Wunderground v.1.15,2013-02-15 03:04:00,
2013-02-14 22:10:00,35.7,33.1,29.75,SSW,202,8.0,8.0,90,0.00,,,0.01,Wunderground v.1.15,2013-02-15 03:10:00,
2013-02-14 22:16:00,35.7,33.1,29.75,South,177,7.0,17.0,90,0.00,,,0.01,Wunderground v.1.15,2013-02-15 03:16:00,
2013-02-14 22:22:00,35.7,33.1,29.75,SW,223,6.0,17.0,90,0.00,,,0.01,Wunderground v.1.15,2013-02-15 03:22:00,
2013-02-14 22:28:00,35.7,33.3,29.74,SSW,196,6.0,17.0,91,0.00,,,0.01,Wunderground v.1.15,2013-02-15 03:28:00,
2013-02-14 22:34:00,35.5,33.1,29.74,SSW,201,8.0,17.0,91,0.00,,,0.01,Wunderground v.1.15,2013-02-15 03:34:00,
2013-02-14 22:40:00,35.2,33.1,29.74,SSW,192,10.0,17.0,92,0.00,,,0.01,Wunderground v.1.15,2013-02-15 03:40:00,
2013-02-14 22:46:00,34.9,33.1,29.74,SSW,198,10.0,17.0,93,0.00,,,0.01,Wunderground v.1.15,2013-02-15 03:46:00,
2013-02-14 22:54:00,34.6,33.1,29.74,SSW,201,10.0,17.0,94,0.00,,,0.01,Wunderground v.1.15,2013-02-15 03:54:00,
2013-02-14 23:02:00,34.5,33.0,29.74,South,175,10.0,17.0,94,0.00,,,0.01,Wunderground v.1.15,2013-02-15 04:02:00,
2013-02-14 23:08:00,34.4,33.1,29.74,SSW,199,10.0,17.0,95,0.00,,,0.01,Wunderground v.1.15,2013-02-15 04:08:00,
2013-02-14 23:14:00,34.3,33.0,29.74,South,187,9.0,17.0,95,0.00,,,0.01,Wunderground v.1.15,2013-02-15 04:14:00,
2013-02-14 23:20:00,34.3,33.0,29.74,South,187,9.0,17.0,95,0.00,,,0.01,Wunderground v.1.15,2013-02-15 04:20:00,
2013-02-14 23:26:00,34.4,33.1,29.74,South,190,9.0,17.0,95,0.00,,,0.01,Wunderground v.1.15,2013-02-15 04:26:00,
2013-02-14 23:34:00,34.5,33.2,29.74,South,184,10.0,17.0,95,0.00,,,0.01,Wunderground v.1.15,2013-02-15 04:34:00,
2013-02-14 23:40:00,34.6,33.3,29.73,South,180,10.0,10.0,95,0.00,,,0.01,Wunderground v.1.15,2013-02-15 04:40:00,
2013-02-14 23:46:00,34.7,33.4,29.74,South,190,10.0,17.0,95,0.00,,,0.01,Wunderground v.1.15,2013-02-15 04:46:00,
2013-02-14 23:52:00,34.7,33.4,29.74,South,186,10.0,17.0,95,0.00,,,0.01,Wunderground v.1.15,2013-02-15 04:52:00,
2013-02-14 23:58:00,34.8,33.2,29.73,SSW,192,11.0,17.0,94,0.00,,,0.01,Wunderground v.1.15,2013-02-15 04:58:00,